Location: Cuiry
(49.3858°N, 3.7708°E)
Time: 23:52:11
(UTC+00:00)

Cosmos 1515 Rocket - Pass Details

Date: 12 January 2026
Orbit: 599 x 623 km, 82.5° (Epoch: 9 February)

Event Time Altitude Azimuth Distance (km) Brightness Sun altitude
Rises 17:19:39 0° 158° (SSE) 2,881 7.0 -11.0°
Reaches altitude 10° 17:22:06 10° 146° (SE) 1,984 6.0 -11.3°
Maximum altitude 17:25:48 27° 89° (E) 1,201 4.5 -11.9°
Enters shadow 17:29:07 12° 34° (NE) 1,867 5.5 -12.4°
